Regional Weather Roundup
Issued by NWS Newport/Morehead, NC

Current Version | Previous Version | Graphics & Text | Print | Product List | Glossary Off
Versions: 1 2 3 4 5 6 7 8 9 10 11 12 13 14 15 16 17 18 19 20 21 22 23 24 25 26 27 28 29 30 31 32 33 34 35 36 37 38 39 40 41 42 43 44 45 46 47 48 49 50

000
ASUS42 KMHX 041913
RWRMHX
WEATHER ROUNDUP FOR EASTERN NORTH CAROLINA
NATIONAL WEATHER SERVICE NEWPORT/MOREHEAD CITY NC
300 PM EDT TUE AUG 04 2015

NOTE: "FAIR" INDICATES FEW OR NO CLOUDS BELOW 12,000 FEET
WITH NO SIGNIFICANT WEATHER AND/OR OBSTRUCTIONS TO VISIBILITY

NCZ015>017-031-032-045>047-102-103-042000-
NORTH COAST

CITY           SKY/WX    TMP DP  RH WIND       PRES   REMARKS
EDENTON          N/A     86  73  65 S13       29.97F
ELIZABETH CITY PTSUNNY   83  73  72 SW18G24   29.98F
KITTY HAWK     CLOUDY    82  76  81 SW6       29.98F
MANTEO         CLOUDY    82  75  80 SW9       30.00F

$$

NCZ045>047-081-094-103-104-042000-
CENTRAL COAST

CITY           SKY/WX    TMP DP  RH WIND       PRES   REMARKS
FRISCO         CLOUDY    83  75  77 SW9       30.02S
SWANQUARTER      N/A     88 N/A N/A S9        29.97S

$$

NCZ095-097-098-100-101-042000-
SOUTHERN COAST

CITY           SKY/WX    TMP DP  RH WIND       PRES   REMARKS
BEAUFORT       CLOUDY    81  76  84 S16G23    30.01F
CEDAR ISLAND     N/A     86 N/A N/A S12G22    30.06S
JACKSONVILLE   CLOUDY    82  71  69 S10       29.99S
PINEY ISLAND   MOCLDY   N/A N/A N/A SW21G30   30.00F
WILMINGTON     CLOUDY    78  74  87 SE9       29.96F


$$

NCZ011>013-027>030-043-044-078>080-089-090>093-098-042000-
COASTAL PLAIN

CITY           SKY/WX    TMP DP  RH WIND       PRES   REMARKS
AHOSKIE        SUNNY    N/A N/A N/A S10G23    29.96S
CLINTON        MOSUNNY   90  74  59 E5        29.96F
ELIZABETHTOWN  PTSUNNY   86  72  64 E6        29.95F
GOLDSBORO      MOSUNNY   92  73  53 S8        29.95S HX 100
GREENVILLE     MOSUNNY   88  77  70 S7        29.99F HX 100
HAVELOCK       PTSUNNY   84  74  71 S16G24    30.01S
KENANSVILLE    MOSUNNY   87  69  56 SE7G16    29.98S
KINSTON        NOT AVBL
NEW BERN       PTSUNNY   87  72  60 S12G22    30.00F
RICHLANDS      PTSUNNY   84  70  61 S14       29.99S
ROCKY MOUNT    SUNNY     93  70  46 S14G20    29.96F
WASHINGTON     MOSUNNY   86  73  66 S8        29.98F
WHITEVILLE     CLOUDY    78  75  91 NE3       29.93F

$$

AMZ130-135-150-152-154-156-158-170-250-252-270-ANZ085-086-088-633-658-670-042000-
MARINE OBSERVATIONS

STATION/POSITION TIME  TEMP    WIND        PRES    WAVE   SWELL
                       AIR SEA DIR/SP/G            HT/PER HT/PER
                 (UTC) (F)     (DEG/KT/KT) (MB)    (FT/S) (FT/S)
CHESAPEAKE LIGHT 1900   81     200/ 25/ 28 1014.2
64 E VA BEACH    1850   82 81  210/ 21/ 25 1014.8    5/ 5   2/11
DUCK             1800   78 63  210/ 13/ 17 1015.6
2 E DUCK         1811      67                N/A     2/11
OREGON INLET     1800   82 82  190/ 12/ 18 1016.3
13E OREGON INLT  1800      81                N/A     3/ 5   2/12
HATTERAS CG      1800   82 79  220/  8/ 12 1016.1
DIAMOND BUOY     1850   82 84  200/ 17/ 19 1016.6    5/ 5   2/11
CAPE LOOKOUT     1900   81     180/ 19/ 21 1015.9
BEAUFORT LAB     1800   82 80  190/ 15/ 17 1015.5
30 SE NEW RVR IN NOT AVBL
27 SE WRIGHTSVLE 1800   77 82  200/ 21/ 23   N/A
5 SE WRIGHTSVLE  1808   78 81  170/ 23/ 29 1014.1
225 S CAPE HAT   1850   83 81  210/ 12/ 14 1019.4    5/ 7   5/ 7
41 SE CHARLESTON 1850   81 83  240/ 16/ 17 1014.2    5/ 7   3/11

$$



USA.gov is the U.S. government's official web portal to all federal, state and local government web resources and services.